Simultaneous Nadir Overpasses (SNOs) Predictions

Prediction of SNOs between LANDSAT-8 and METOP-B Satellite Orbit:

Table of predicted SNOs for the next 14.0 days since TLE Epoch: 7/12/2014
Index Date (LANDSAT-8) Time (LANDSAT-8) Lat,Lon (LANDSAT-8) SZA (LANDSAT-8 ) Date (METOP-B) Time (METOP-B) Lat,Lon (METOP-B) SZA (METOP-B ) Distance(km) Time Diff (sec)
1 07/13/2014 17:12:12 81.15, -37.73 61.44 07/13/2014 17:11:02 81.14, -37.76 61.40 0.61 70
2 07/13/2014 18:01:38 -81.17, 130.26 118.51 07/13/2014 18:01:41 -81.16, 130.13 118.53 2.24 3
3 07/16/2014 12:46:27 81.16, 28.92 61.90 07/16/2014 12:45:21 81.15, 28.88 61.86 0.96 66
4 07/16/2014 13:35:54 -81.16,-163.45 118.10 07/16/2014 13:36:01 -81.16,-163.55 118.11 1.76 7
5 07/19/2014 08:20:43 81.14, 95.06 62.33 07/19/2014 08:19:41 81.15, 95.10 62.31 0.91 62
6
